PGT6BP LTFJ-LTAN

Flight info

Callsign PGT6BP
Flight time 0h 46m
Altitude 31000
Route LTFJ ROXU1W ROXUK UN617 ERVAG UT179 KFK UB545 HISAR HISA1S LTAN
Aircraft A320/M-V/N

Departure

Time 2026-05-05 17:55
Airport Istanbul Sabiha Gökçen International Airport (LTFJ)

Arrival

Time 2026-05-05 18:42
Airport Konya Airport (LTAN)
Time Latitude Longitude Altitude Speed Heading
2026-05-05 17:14 40.90706 29.31839 321 ft 0 kts 334°
2026-05-05 17:42 40.90702 29.31842 320 ft 2 kts 334°
2026-05-05 17:43 40.90686 29.31852 321 ft 2 kts 334°
2026-05-05 17:43 40.90671 29.31862 320 ft 2 kts 334°
2026-05-05 17:43 40.90656 29.31872 319 ft 2 kts 334°
2026-05-05 17:43 40.90641 29.31884 319 ft 2 kts 307°
2026-05-05 17:44 40.90632 29.31904 321 ft 2 kts 294°
2026-05-05 17:44 40.90629 29.31911 321 ft 0 kts 291°
2026-05-05 17:44 40.90626 29.31920 320 ft 3 kts 285°
2026-05-05 17:44 40.90624 29.31941 321 ft 0 kts 254°
2026-05-05 17:47 40.90623 29.31938 321 ft 1 kts 245°
2026-05-05 17:48 40.90592 29.31935 321 ft 9 kts 163°
2026-05-05 17:48 40.90522 29.31978 321 ft 11 kts 155°
2026-05-05 17:48 40.90459 29.31982 320 ft 8 kts 219°
2026-05-05 17:48 40.90434 29.31926 320 ft 7 kts 243°
2026-05-05 17:49 40.90400 29.31837 321 ft 14 kts 244°
2026-05-05 17:49 40.90346 29.31688 321 ft 21 kts 244°
2026-05-05 17:49 40.90274 29.31489 321 ft 26 kts 244°
2026-05-05 17:49 40.90194 29.31274 320 ft 26 kts 243°
2026-05-05 17:50 40.90114 29.31054 321 ft 27 kts 244°
2026-05-05 17:50 40.90032 29.30834 320 ft 27 kts 244°
2026-05-05 17:50 40.89948 29.30610 320 ft 27 kts 243°
2026-05-05 17:50 40.89866 29.30382 321 ft 28 kts 244°
2026-05-05 17:51 40.89780 29.30153 321 ft 28 kts 244°
2026-05-05 17:51 40.89696 29.29922 321 ft 28 kts 244°
2026-05-05 17:51 40.89610 29.29688 321 ft 28 kts 245°
2026-05-05 17:51 40.89524 29.29453 321 ft 28 kts 244°
2026-05-05 17:52 40.89423 29.29251 320 ft 22 kts 179°
2026-05-05 17:52 40.89385 29.29263 319 ft 0 kts 145°
2026-05-05 17:52 40.89365 29.29274 319 ft 7 kts 155°
2026-05-05 17:52 40.89362 29.29276 319 ft 0 kts 155°
2026-05-05 17:53 40.89359 29.29278 319 ft 3 kts 155°
2026-05-05 17:53 40.89314 29.29306 317 ft 9 kts 150°
2026-05-05 17:54 40.89290 29.29379 316 ft 9 kts 78°
2026-05-05 17:54 40.89299 29.29410 317 ft 0 kts 66°
2026-05-05 17:54 40.89338 29.29521 318 ft 47 kts 64°
2026-05-05 17:54 40.89597 29.30227 322 ft 120 kts 64°
2026-05-05 17:55 40.90049 29.31447 376 ft 169 kts 64°
2026-05-05 17:55 40.90576 29.32899 947 ft 179 kts 64°
2026-05-05 17:55 40.91120 29.34380 1758 ft 182 kts 63°
2026-05-05 17:55 40.91700 29.35945 2289 ft 197 kts 62°
2026-05-05 17:56 40.92329 29.37638 2765 ft 213 kts 62°
2026-05-05 17:56 40.93007 29.39476 3274 ft 232 kts 62°
2026-05-05 17:56 40.93478 29.41588 3874 ft 252 kts 90°
2026-05-05 17:56 40.92925 29.43806 4626 ft 265 kts 127°
2026-05-05 17:57 40.91471 29.45367 5402 ft 277 kts 152°
2026-05-05 17:57 40.89679 29.46368 6245 ft 282 kts 160°
2026-05-05 17:57 40.87769 29.47061 7095 ft 286 kts 168°
2026-05-05 17:57 40.85803 29.47584 7879 ft 291 kts 169°
2026-05-05 17:58 40.83828 29.48088 8644 ft 296 kts 169°
2026-05-05 17:58 40.81788 29.48603 9417 ft 301 kts 169°
2026-05-05 17:58 40.79710 29.49126 10163 ft 306 kts 169°
2026-05-05 17:58 40.77569 29.49666 10643 ft 321 kts 169°
2026-05-05 17:59 40.75315 29.50235 11010 ft 338 kts 169°
2026-05-05 17:59 40.72948 29.50832 11349 ft 355 kts 169°
2026-05-05 17:59 40.70476 29.51457 11842 ft 365 kts 169°
2026-05-05 17:59 40.67966 29.52093 12517 ft 369 kts 169°
2026-05-05 18:00 40.65428 29.52737 13221 ft 373 kts 169°
2026-05-05 18:00 40.62869 29.53387 13904 ft 376 kts 169°
2026-05-05 18:00 40.60284 29.54043 14496 ft 380 kts 169°
2026-05-05 18:00 40.57679 29.54704 15095 ft 383 kts 169°
2026-05-05 18:01 40.55053 29.55368 15719 ft 386 kts 169°
2026-05-05 18:01 40.52409 29.56036 16341 ft 388 kts 169°
2026-05-05 18:01 40.49828 29.56687 16926 ft 391 kts 169°
2026-05-05 18:01 40.47064 29.57382 17538 ft 393 kts 169°
2026-05-05 18:02 40.44416 29.58048 18112 ft 396 kts 169°
2026-05-05 18:02 40.41703 29.58727 18649 ft 399 kts 169°
2026-05-05 18:02 40.38914 29.59426 19175 ft 402 kts 169°
2026-05-05 18:02 40.36158 29.60118 19694 ft 404 kts 169°
2026-05-05 18:03 40.33386 29.60818 20228 ft 407 kts 169°
2026-05-05 18:03 40.30605 29.61519 20752 ft 409 kts 169°
2026-05-05 18:03 40.27793 29.62226 21261 ft 412 kts 169°
2026-05-05 18:03 40.24967 29.62933 21759 ft 415 kts 169°
2026-05-05 18:04 40.22114 29.63643 22256 ft 417 kts 169°
2026-05-05 18:04 40.19258 29.64352 22731 ft 420 kts 169°
2026-05-05 18:04 40.16376 29.65066 23191 ft 422 kts 169°
2026-05-05 18:04 40.13505 29.65776 23631 ft 425 kts 169°
2026-05-05 18:05 40.11538 29.66266 23885 ft 427 kts 168°
2026-05-05 18:05 40.07662 29.67237 24382 ft 430 kts 168°
2026-05-05 18:05 40.04723 29.67973 24747 ft 431 kts 168°
2026-05-05 18:05 40.01769 29.68709 25096 ft 433 kts 169°
2026-05-05 18:06 39.98793 29.69445 25447 ft 435 kts 169°
2026-05-05 18:06 39.97888 29.69669 25549 ft 436 kts 169°
2026-05-05 18:06 39.92817 29.70923 26132 ft 439 kts 169°
2026-05-05 18:06 39.89822 29.71725 26451 ft 441 kts 164°
2026-05-05 18:07 39.86916 29.73028 26790 ft 442 kts 156°
2026-05-05 18:07 39.84097 29.74628 27110 ft 444 kts 156°
2026-05-05 18:07 39.81261 29.76240 27421 ft 445 kts 156°
2026-05-05 18:07 39.78423 29.77851 27742 ft 447 kts 156°
2026-05-05 18:08 39.76523 29.78927 27947 ft 448 kts 156°
2026-05-05 18:08 39.73657 29.80547 28243 ft 450 kts 156°
2026-05-05 18:08 39.70786 29.82166 28523 ft 451 kts 156°
2026-05-05 18:08 39.67895 29.83794 28810 ft 453 kts 156°
2026-05-05 18:09 39.64112 29.85916 29164 ft 455 kts 156°
2026-05-05 18:09 39.62085 29.87052 29334 ft 456 kts 156°
2026-05-05 18:09 39.59161 29.88689 29582 ft 458 kts 156°
2026-05-05 18:09 39.56232 29.90323 29822 ft 460 kts 156°
2026-05-05 18:10 39.52335 29.92494 30123 ft 462 kts 156°
2026-05-05 18:10 39.50338 29.93612 30258 ft 463 kts 156°
2026-05-05 18:10 39.47495 29.95216 30419 ft 464 kts 156°
2026-05-05 18:10 39.44412 29.96965 30607 ft 465 kts 156°
2026-05-05 18:11 39.41485 29.98627 30837 ft 466 kts 156°
2026-05-05 18:11 39.38519 30.00309 31027 ft 467 kts 156°
2026-05-05 18:11 39.35565 30.01980 31087 ft 458 kts 156°
2026-05-05 18:12 39.29760 30.05257 31086 ft 455 kts 156°
2026-05-05 18:12 39.23955 30.08523 31088 ft 455 kts 156°
2026-05-05 18:13 39.18137 30.11775 31091 ft 455 kts 156°
2026-05-05 18:13 39.12324 30.15024 31090 ft 456 kts 156°
2026-05-05 18:14 39.06724 30.18810 31091 ft 456 kts 143°
2026-05-05 18:14 39.02142 30.24430 31087 ft 456 kts 132°
2026-05-05 18:15 38.97856 30.30452 31092 ft 457 kts 132°
2026-05-05 18:15 38.93541 30.36449 31096 ft 457 kts 132°
2026-05-05 18:16 38.89225 30.42436 31100 ft 457 kts 132°
2026-05-05 18:16 38.84912 30.48435 31096 ft 457 kts 132°
2026-05-05 18:17 38.80601 30.54431 31096 ft 457 kts 132°
2026-05-05 18:17 38.76356 30.60512 31093 ft 458 kts 130°
2026-05-05 18:18 38.72213 30.66681 31091 ft 458 kts 130°
2026-05-05 18:18 38.68082 30.72831 31090 ft 458 kts 130°
2026-05-05 18:19 38.63898 30.78974 31086 ft 458 kts 131°
2026-05-05 18:19 38.59701 30.85093 31081 ft 458 kts 131°
2026-05-05 18:20 38.55481 30.91244 30850 ft 460 kts 131°
2026-05-05 18:20 38.53380 30.94314 30604 ft 458 kts 131°
2026-05-05 18:20 38.51290 30.97364 30362 ft 455 kts 131°
2026-05-05 18:20 38.49208 31.00395 30114 ft 452 kts 131°
2026-05-05 18:21 38.47136 31.03401 29835 ft 450 kts 131°
2026-05-05 18:21 38.45063 31.06390 29549 ft 448 kts 131°
2026-05-05 18:21 38.42991 31.09357 29261 ft 447 kts 131°
2026-05-05 18:21 38.40923 31.12311 28981 ft 446 kts 131°
2026-05-05 18:22 38.38859 31.15258 28706 ft 444 kts 131°
2026-05-05 18:22 38.36806 31.18191 28430 ft 443 kts 132°
2026-05-05 18:22 38.34781 31.21080 28161 ft 441 kts 132°
2026-05-05 18:22 38.32714 31.24033 27891 ft 440 kts 132°
2026-05-05 18:23 38.30678 31.26934 27624 ft 439 kts 132°
2026-05-05 18:23 38.28669 31.29795 27362 ft 438 kts 132°
2026-05-05 18:23 38.26645 31.32681 27100 ft 436 kts 132°
2026-05-05 18:23 38.24600 31.35531 26841 ft 435 kts 133°
2026-05-05 18:24 38.22577 31.38385 26587 ft 434 kts 132°
2026-05-05 18:24 38.20586 31.41231 26106 ft 428 kts 132°
2026-05-05 18:24 38.18615 31.44063 25547 ft 425 kts 132°
2026-05-05 18:24 38.16679 31.46838 25307 ft 414 kts 132°
2026-05-05 18:25 38.14798 31.49523 25216 ft 400 kts 131°
2026-05-05 18:25 38.13639 31.51399 25038 ft 400 kts 124°
2026-05-05 18:25 38.11878 31.55500 24345 ft 399 kts 110°
2026-05-05 18:25 38.11070 31.58851 23865 ft 396 kts 101°
2026-05-05 18:26 38.10654 31.62298 23355 ft 394 kts 96°
2026-05-05 18:26 38.10286 31.65719 22905 ft 389 kts 97°
2026-05-05 18:26 38.09903 31.69108 22460 ft 385 kts 97°
2026-05-05 18:26 38.09518 31.72457 22027 ft 382 kts 97°
2026-05-05 18:27 38.09133 31.75784 21598 ft 379 kts 97°
2026-05-05 18:27 38.08759 31.79020 21171 ft 377 kts 97°
2026-05-05 18:27 38.08374 31.82353 20731 ft 374 kts 97°
2026-05-05 18:27 38.07994 31.85631 20295 ft 372 kts 97°
2026-05-05 18:28 38.07249 31.92092 19406 ft 368 kts 97°
2026-05-05 18:28 38.06881 31.95304 18946 ft 367 kts 97°
2026-05-05 18:28 38.06513 31.98504 18501 ft 366 kts 97°
2026-05-05 18:29 38.06147 32.01697 18011 ft 366 kts 97°
2026-05-05 18:29 38.05781 32.04880 17546 ft 363 kts 97°
2026-05-05 18:29 38.05416 32.08042 17087 ft 361 kts 97°
2026-05-05 18:29 38.05051 32.11190 16641 ft 359 kts 97°
2026-05-05 18:30 38.04686 32.14318 16194 ft 357 kts 97°
2026-05-05 18:30 38.04328 32.17391 15742 ft 356 kts 97°
2026-05-05 18:30 38.03963 32.20532 15299 ft 355 kts 97°
2026-05-05 18:30 38.03602 32.23624 14859 ft 354 kts 97°
2026-05-05 18:31 38.03241 32.26709 14418 ft 353 kts 97°
2026-05-05 18:31 38.02884 32.29751 13964 ft 353 kts 97°
2026-05-05 18:31 38.02521 32.32816 13486 ft 351 kts 97°
2026-05-05 18:31 38.02158 32.35872 13032 ft 348 kts 97°
2026-05-05 18:32 38.01796 32.38900 12580 ft 346 kts 97°
2026-05-05 18:32 38.01436 32.41899 12120 ft 343 kts 97°
2026-05-05 18:32 38.01080 32.44875 11664 ft 340 kts 97°
2026-05-05 18:32 38.00728 32.47831 11179 ft 339 kts 97°
2026-05-05 18:33 38.00347 32.50739 10670 ft 338 kts 104°
2026-05-05 18:33 37.99373 32.53407 10327 ft 333 kts 127°
2026-05-05 18:33 37.97726 32.55363 10210 ft 320 kts 148°
2026-05-05 18:33 37.95713 32.56406 10085 ft 307 kts 169°
2026-05-05 18:34 37.93621 32.56605 9854 ft 299 kts 179°
2026-05-05 18:34 37.91524 32.56651 9384 ft 300 kts 179°
2026-05-05 18:34 37.89462 32.56693 8929 ft 293 kts 179°
2026-05-05 18:34 37.87429 32.56734 8215 ft 291 kts 180°
2026-05-05 18:35 37.85411 32.56773 7581 ft 288 kts 180°
2026-05-05 18:35 37.83470 32.56812 7420 ft 268 kts 180°
2026-05-05 18:35 37.81663 32.56849 7216 ft 253 kts 180°
2026-05-05 18:35 37.79954 32.56883 7124 ft 243 kts 181°
2026-05-05 18:36 37.78356 32.56531 7060 ft 226 kts 208°
2026-05-05 18:36 37.77186 32.55338 6973 ft 212 kts 238°
2026-05-05 18:36 37.76627 32.53645 6865 ft 209 kts 265°
2026-05-05 18:36 37.76745 32.51842 6760 ft 206 kts 291°
2026-05-05 18:37 37.77483 32.50312 6658 ft 205 kts 316°
2026-05-05 18:37 37.78681 32.49366 6549 ft 205 kts 343°
2026-05-05 18:37 37.80093 32.49215 6450 ft 206 kts
2026-05-05 18:37 37.81469 32.49712 6352 ft 204 kts 16°
2026-05-05 18:38 37.82801 32.50237 6205 ft 199 kts 15°
2026-05-05 18:38 37.84136 32.50748 5882 ft 201 kts 15°
2026-05-05 18:38 37.85462 32.51245 5683 ft 196 kts 15°
2026-05-05 18:38 37.86753 32.51726 5456 ft 189 kts 15°
2026-05-05 18:39 37.87984 32.52189 5222 ft 180 kts 15°
2026-05-05 18:39 37.89158 32.52633 5002 ft 171 kts 15°
2026-05-05 18:39 37.90244 32.53043 4765 ft 159 kts 15°
2026-05-05 18:39 37.91268 32.53431 4533 ft 152 kts 15°
2026-05-05 18:40 37.92280 32.53813 4295 ft 151 kts 14°
2026-05-05 18:40 37.93283 32.54194 4072 ft 149 kts 14°
2026-05-05 18:40 37.94277 32.54584 3880 ft 149 kts 13°
2026-05-05 18:40 37.95269 32.54973 3666 ft 149 kts 12°
2026-05-05 18:41 37.96258 32.55331 3507 ft 148 kts 11°
2026-05-05 18:41 37.97246 32.55680 3393 ft 148 kts 15°
2026-05-05 18:41 37.98115 32.56017 3392 ft 105 kts 15°
2026-05-05 18:41 37.98650 32.56219 3389 ft 55 kts 18°
2026-05-05 18:42 37.98849 32.56309 3391 ft 5 kts 18°
2026-05-05 18:42 37.98895 32.56326 3392 ft 13 kts 15°
2026-05-05 18:42 37.99014 32.56368 3391 ft 22 kts 16°
2026-05-05 18:42 37.99163 32.56423 3392 ft 23 kts 15°
2026-05-05 18:43 37.99317 32.56482 3392 ft 24 kts 17°
2026-05-05 18:43 37.99371 32.56582 3392 ft 12 kts 101°
2026-05-05 18:43 37.99349 32.56678 3390 ft 11 kts 107°
2026-05-05 18:43 37.99326 32.56767 3390 ft 10 kts 108°
2026-05-05 18:44 37.99307 32.56841 3390 ft 8 kts 108°
2026-05-05 18:44 37.99293 32.56898 3391 ft 7 kts 108°
2026-05-05 18:44 37.99278 32.56956 3391 ft 7 kts 105°
2026-05-05 18:44 37.99262 32.57031 3391 ft 8 kts 109°
2026-05-05 18:45 37.99236 32.57094 3391 ft 12 kts 124°
2026-05-05 18:45 37.99144 32.57233 3391 ft 29 kts 130°
2026-05-05 18:45 37.98988 32.57464 3391 ft 37 kts 129°
2026-05-05 18:45 37.98852 32.57591 3391 ft 20 kts 185°
2026-05-05 18:46 37.98721 32.57554 3391 ft 12 kts 194°
2026-05-05 18:46 37.98650 32.57530 3391 ft 10 kts 194°
2026-05-05 18:46 37.98591 32.57510 3391 ft 8 kts 195°
2026-05-05 18:46 37.98578 32.57506 3391 ft 2 kts 195°
2026-05-05 18:47 37.98562 32.57505 3392 ft 1 kts 168°
2026-05-05 18:47 37.98550 32.57518 3391 ft 4 kts 127°
2026-05-05 18:47 37.98543 32.57539 3391 ft 0 kts 109°
2026-05-05 18:47 37.98543 32.57541 3391 ft 1 kts 109°
2026-05-05 18:48 37.98541 32.57545 3391 ft 1 kts 111°
2026-05-05 18:48 37.98539 32.57552 3391 ft 0 kts 109°